DELTA 1 DEB, 10660

Orbit data source: Space-Track

DELTA 1 DEB, 10660 is space debris in LEO originally from a launch on Thu, 29 Jul 1976 UTC launched from the Air Force Western Test Range (AFWTR). Debris objects in space refer to the collection of defunct objects orbiting the Earth. Examples of debris include non-operational satellites, rocket bodies, and fragments generated from explosions, collisions, or faulty payload assembly.

Loading next visibility...
Identifier
10660, 1976-077W
Orbit
LEO
Country
Flag of USUS
Related business
Manufacturer
Unknown
Mission
Spacecraft
Bus & Motor
Unknown
Mass
Unknown
Launch date (UTC)
1976-07-29 (50 years ago)
Launch vehicle
Unknown
Launch site
Air Force Western Test Range (AFWTR)
Object type
Payload
Rocket body
Debris
Shape & HBR
Unknown shape, 0.2 m
Radar Cross Section
Medium (>0.1 m² and <1 m²)

Expand to show TLE details & history
Last TLE update: 12 hours ago

TLE from 12 hours ago
0 DELTA 1 DEB
1 10660U 76077W   26265.51195815 -.00000169  00000-0 -19704-2 0  9997
2 10660 102.2310 137.7646 0393672 234.2094 247.8720 11.67398878135447
Epoch: 2026-09-22T12:17Z
TLE epoch observation values (Epoch: 2026-09-22T12:17:13.184Z)
Latitude
59.74638°
Longitude
153.79491°
Altitude
1,972.534 km
Speed
6.859 km/s
True Right ascension
22h 37m 54s
True Declination
59° 37' 06"
Sunlit
Object was in daylight at epoch
Visualization orbit readout
Latitude
Unknown
Longitude
Unknown
Altitude
Unknown
Speed
Unknown
Apparent Right ascension
Unknown
Apparent Declination
Unknown
Sunlit
N/A
Visualization observer readout
Local Sidereal Time
17:50:06
Azimuth
Unknown
Elevation
Unknown
Doppler factor
Unknown
Orbital elements
Apogee altitude
2,150.936 km
Perigee altitude
1,504.84 km
Semi-major axis
8,206.025 km
Eccentricity
0.03937
Inclination
102.231°
RAAN
137.7646°
Arg. of periapsis
234.2094°
True anomaly
243.77272°
Mean anomaly
247.872°
Eccentric anomaly
245.81441°
Mean motion
2.91974 °/min
Orbital period
123.3 mins
BSTAR
-0.0019704
Loading maneuver chart data...
Computing Atmospheric mass density...
Loading historical data...
Loading historical data...
Loading historical data...
Loading historical data...
Loading historical data...
Loading historical data...
Loading historical data...

Documentation

Showing up to 5 results
|